Capitol Logistics 447


KSLC
Salt Lake City International Airport
Salt Lake City, Utah, US
KMSP
Minneapolis-St Paul International Airport
Minneapolis, Minnesota, US

Activity Log

Date Flight Route Aircraft Duration
No Flights Yet

Route Details

Aircraft Information
Primary: Boeing 757-200SF
Backup: Boeing 737-800BCF
Route Data
Distance: 860nm
Sched. Duration: 2h 29m
Avg. Duration: 0h 00m (-230m)
Times Flown: 0
Recm'd Route: RUGGD1 OCS CKW MBW BFF ANW SSWAN TORGY3
Planned Altitude: 35,000ft
Origin Wx: KSLC 250954Z 34017KT 10SM BKN050 BKN075 07/M03 A2986 RMK AO2 SLP089 T00671033 VISNO NW RNWY $
Dest. Wx: KMSP 250953Z 36007KT 10SM SCT065 BKN080 OVC095 M02/M07 A3036 RMK AO2 SLP294 T10221072
Notes:

Financial History
Total Freight: 0lbs
Average Load: 0lbs/flt
Fuel Used: 0lbs
Avg. Fuel Used: 0lbs/flt
Fuel Expense: $0
Avg. Fuel Expense: $0
Avg. Fuel Cost: $0/lbs
Total Gross Income: $0
Pilot Pay: $0
Total Expenses: $0
Total Revenue: $0
Average Revenue: $0